Terminal Aerodrome Forecast
Issued by NWS Topeka, KS

Home | Current Version | Previous Version | Graphics & Text | Print | Product List | Glossary On
Versions: 1 2 3 4 5 6 7 8 9 10 11 12
000
FTUS43 KTOP 230520
TAFTOP
TAF
KTOP 230520Z 2306/2406 15007KT P6SM FEW250
     FM231700 17012G20KT P6SM FEW080
     FM240000 14008KT P6SM FEW250=

USA.gov is the U.S. government's official web portal to all federal, state and local government web resources and services.